Regional Weather Roundup
Issued by NWS Newport/Morehead, NC

Current Version | Previous Version | Graphics & Text | Print | Product List | Glossary Off
Versions: 1 2 3 4 5 6 7 8 9 10 11 12 13 14 15 16 17 18 19 20 21 22 23 24 25 26 27 28 29 30 31 32 33 34 35 36 37 38 39 40 41 42 43 44 45 46 47 48 49 50

000
ASUS42 KMHX 291025
RWRMHX
WEATHER ROUNDUP FOR EASTERN NORTH CAROLINA
NATIONAL WEATHER SERVICE NEWPORT/MOREHEAD CITY NC
600 AM EDT SAT AUG 29 2015

NOTE: "FAIR" INDICATES FEW OR NO CLOUDS BELOW 12,000 FEET
WITH NO SIGNIFICANT WEATHER AND/OR OBSTRUCTIONS TO VISIBILITY

NCZ015>017-031-032-045>047-102-103-291100-
NORTH COAST

CITY           SKY/WX    TMP DP  RH WIND       PRES   REMARKS
EDENTON        CLEAR     62  60  94 CALM      30.18R
ELIZABETH CITY PTCLDY    68  64  87 N6        30.18R
KITTY HAWK     SUNNY     74  64  70 NE7       30.16R
MANTEO         CLEAR     73  66  78 NE8       30.16S

$$

NCZ045>047-081-094-103-104-291100-
CENTRAL COAST

CITY           SKY/WX    TMP DP  RH WIND       PRES   REMARKS
FRISCO         CLOUDY    76  70  82 NE8       30.13S
SWANQUARTER    NOT AVBL

$$

NCZ095-097-098-100-101-291100-
SOUTHERN COAST

CITY           SKY/WX    TMP DP  RH WIND       PRES   REMARKS
BEAUFORT       PTCLDY    72  70  93 NE7       30.12S
CEDAR ISLAND   NOT AVBL
JACKSONVILLE   PTCLDY    67  63  87 N5        30.14R
PINEY ISLAND   SUNNY    N/A N/A N/A NE14      30.12F
WILMINGTON     CLEAR     67  64  90 N5        30.13R


$$

NCZ011>013-027>030-043-044-078>080-089-090>093-098-291100-
COASTAL PLAIN

CITY           SKY/WX    TMP DP  RH WIND       PRES   REMARKS
AHOSKIE        PTCLDY    56  54  94 CALM      30.20R
CLINTON        CLEAR     62  62  98 CALM      30.18R
ELIZABETHTOWN  CLEAR     63  62  97 CALM      30.17R
GOLDSBORO      CLEAR     63  62  96 NW3       30.16R
GREENVILLE     CLEAR     59  59 100 CALM      30.19R FOG
HAVELOCK       CLEAR     73  69  87 NE10      30.14S
KENANSVILLE      N/A     60  59  97 CALM      30.18R
KINSTON        CLEAR     61  60  97 N5        30.17S
NEW BERN       CLEAR     68  65  90 N5        30.16R
RICHLANDS      CLEAR     64  59  82 N5        30.16R
ROCKY MOUNT    CLEAR     59  58  96 NE3       30.19R
WASHINGTON     CLEAR     62  60  96 N5        30.17S
WHITEVILLE     CLEAR     65  63  93 CALM      30.15R

$$

AMZ130-135-150-152-154-156-158-170-250-252-270-ANZ085-086-088-633-658-670-291100-
MARINE OBSERVATIONS

STATION/POSITION TIME  TEMP    WIND        PRES    WAVE   SWELL
                       AIR SEA DIR/SP/G            HT/PER HT/PER
                 (UTC) (F)     (DEG/KT/KT) (MB)    (FT/S) (FT/S)
CHESAPEAKE LIGHT 1000   75      50/ 12/ 13 1022.7
64 E VA BEACH    0950   76 79   50/ 10/ 14 1021.3    4/10   3/10
DUCK             NOT AVBL
2 E DUCK         1011      78                N/A     3/10   2/12
OREGON INLET     NOT AVBL
13E OREGON INLT  1000      78                N/A     4/10   2/11
HATTERAS CG      NOT AVBL
DIAMOND BUOY     0950   78 82   40/ 16/ 19 1019.6    5/11   3/11
CAPE LOOKOUT     1000   78      40/ 19/ 23 1019.4
BEAUFORT LAB     NOT AVBL
30 SE NEW RVR IN 0908   79 81   50/ 19/ 23 1018.9
30 SE NEW RVR IN 0925      81                N/A     5/ 6   2/11
27 SE WRIGHTSVLE 1000   76 81   60/ 16/ 19   N/A
5 SE WRIGHTSVLE  0908   78 82   50/ 14/ 17 1019.3
225 S CAPE HAT   0950   82 83  210/ 12/ 14 1019.2    4/11   3/11
41 SE CHARLESTON 0950   81 84   60/ 14/ 17 1018.3    4/ 6   3/ 8

$$


USA.gov is the U.S. government's official web portal to all federal, state and local government web resources and services.